Location: Martin Dies, Jr. State Park
(30.8429°N, 94.1720°W)
Time: 04:32:37
(UTC-06:00)

ISS - Pass Details

Date: 19 November 2019
Orbit: 411 x 421 km, 51.6° (Epoch: 16 December)

Event Time Altitude Azimuth Distance (km) Brightness Sun altitude
Rises 18:17:53 0° 209° (SSW) 2,336 0.7 -13.1°
Reaches altitude 10° 18:20:02 10° 202° (SSW) 1,479 -0.5 -13.6°
Maximum altitude 18:23:10 41° 131° (SE) 616 -3.2 -14.2°
Enters shadow 18:24:18 30° 84° (E) 782 -3.0 -14.5°
